Location: Bellflower
(33.8817°N, 118.1170°W)
Time: 13:50:58
(UTC+00:00)

Cosmos 1943 - Pass Details

Date: 23 November 2020
Orbit: 832 x 851 km, 71.0° (Epoch: 21 January)

Event Time Altitude Azimuth Distance (km) Brightness Sun altitude
Exits shadow 13:29:03 - 341° (NNW) 3,469 6.1 -13.2°
Rises 13:29:11 0° 341° (NNW) 3,420 6.0 -13.2°
Reaches altitude 10° 13:31:39 10° 343° (NNW) 2,482 5.3 -12.7°
Maximum altitude 13:37:21 73° 68° (ENE) 890 3.5 -11.6°
Drops below altitude 10° 13:43:01 10° 153° (SSE) 2,466 6.3 -10.5°
Sets 13:45:27 0° 156° (SSE) 3,397 7.0 -10.0°
